Location: Fargo
(46.8667°N, 96.7833°W)
Time: 00:41:05
(UTC-05:00)

OTV 5 (USA 277) - Visible Passes

Search period start: 20 October 2019 00:00
Search period end: 30 October 2019 00:00
Orbit: 310 x 324 km, 54.5° (Epoch: 17 October)

Date Brightness Start Highest point End Pass type
(mag) Time Alt. Az. Time Alt. Az. Time Alt. Az.
20 Oct ? 06:08:43 26° S 06:08:43 26° S 06:10:15 10° SSE visible
21 Oct ? 06:23:30 12° S 06:23:30 12° S 06:23:53 10° S visible
28 Oct ? 19:40:46 10° S 19:42:19 19° SSE 19:42:19 19° SSE visible
29 Oct ? 19:54:37 10° SW 19:56:47 42° S 19:56:47 42° S visible
